Regional Weather Roundup
Issued by NWS Pendleton, OR

Home | Current Version | Previous Version | Text Only | Print | Product List | Glossary On
Versions: 1 2 3 4 5 6 7 8 9 10 11 12 13 14 15 16 17 18 19 20 21 22 23 24 25 26 27 28 29 30 31 32 33 34 35 36 37 38 39 40 41 42 43 44 45 46 47 48 49 50
000
ASUS46 KPDT 300325
RWRPDT
PENDLETON REGIONAL WEATHER ROUNDUP
NATIONAL WEATHER SERVICE PENDLETON OREGON
700 PM PST THU JAN 29 2015

NOTE: FAIR INDICATES FEW OR NO CLOUDS BELOW 12,000 FEET WITH NO
SIGNIFICANT WEATHER AND/OR OBSTRUCTIONS TO VISIBILITY.

# INDICATES UNOFFICIAL STATION AND DATA

WAZ520-300410-
EAST SLOPES OF WASHINGTON CASCADES

CITY            SKY/WX      TMP DP  RH  WIND    PRES   REMARKS
#BUMPING DAM    N/A         34  N/A N/A N1      N/A
#CLE ELUM HS    N/A         32  30  92  CALM    30.32S
#CLE ELUM LAKE  N/A         28  28  100 CALM    30.45R
#CLIFFDEL 2NW   N/A         30  29  96  E2      N/A
#GLENWOOD       N/A         35  33  92  CALM    30.43R
#MANASTASH CYN  N/A         29  26  88  CALM    30.31R
#NELSON         N/A         31  29  92  CALM    30.49R
#NELSON 3SW     N/A         28  27  96  CALM    30.68R
#NILE           N/A         32  31  96  CALM    29.71R
#RONALD 2NW     N/A         31  23  72  CALM    30.20S
#SNOWDEN        N/A         32  29  89  CALM    N/A
#TEANAWAY 4NE   N/A         32  31  96  CALM    N/A
#TROUT LAKE 1NE N/A         35  34  96  CALM    30.44R
$$

WAZ521-300410-
SIMCOE HIGHLANDS

CITY            SKY/WX      TMP DP  RH  WIND    PRES   REMARKS
#BICKLETON HS   N/A         30  30  100 CALM    N/A
#CENTERVILLE 4W N/A         35  34  96  SE3     30.12R
#CENTERVILLE 1SWN/A         33  31  92  E6      30.43R
#GOLDENDALE     N/A         35  35  100 SE5     N/A
#GOLDENDALE 1NE N/A         35  35  100 E3      N/A
#GOLDENDALE 1S  N/A         32  32  100 SW2     30.34S
#GOLDENDALE 5WNWN/A         34  33  96  CALM    30.44R
#GOODNOE HILLS  N/A         36  31  82  E6      N/A
#LYLE 6NE       N/A         35  34  96  E2      30.42R
$$

WAZ026-300410-
KITTITAS VALLEY

CITY            SKY/WX      TMP DP  RH  WIND    PRES   REMARKS
ELLENSBURG AP   CLOUDY      36  32  85  NW6     30.40R
#ELLENSBURG CWU N/A         34  32  92  N3      30.42S
#ELLENSBURG 3NE N/A         33  32  96  W1      30.38R
#ELLENSBURG 1E  N/A         34  31  89  CALM    N/A
#KITTITAS 4N    N/A         35  32  89  CALM    28.69R
#KITTITAS 3S    N/A         35  33  92  W1      30.46R
#THORP 6N       N/A         30  29  96  CALM    30.49S
$$

WAZ027-300410-
YAKIMA VALLEY

CITY            SKY/WX      TMP DP  RH  WIND    PRES   REMARKS
SUNNYSIDE AP    CLOUDY      36  34  92  CALM    30.45S
YAKIMA AIRPORT  CLOUDY      38  32  79  W6      30.44S
YAKIMA-VAGABOND CLOUDY      36  33  89  S3      30.42R
#DONALD 2NE     N/A         35  33  92  E2      29.28S
#MABTON         N/A         37  36  96  SW1     30.45R
#MOXEE 2E       N/A         37  36  96  CALM    30.40R
#NACHES 2SW     N/A         34  33  96  W1      30.39S
#OUTLOOK DOT    N/A         N/A N/A N/A W2      N/A
#SELAH 8E       N/A         33  33  100 CALM    N/A
#TERRACE HTS    N/A         34  33  96  CALM    30.45S
#TOPPENISH      N/A         36  34  92  CALM    30.40S
#WAPATO 4NE     N/A         35  33  92  E2      29.28S
#WEST VALLEY    N/A         36  34  92  CALM    30.46S
#W YAKIMA       N/A         35  33  92  CALM    30.48S
#WHITE SWAN 5E  N/A         35  33  92  W5      30.50S
#WILEY CITY 3W  N/A         34  27  75  CALM    30.44R
$$

WAZ028-300410-
LOWER COLUMBIA BASIN...WASHINGTON

CITY            SKY/WX      TMP DP  RH  WIND    PRES   REMARKS
PASCO           CLOUDY      39  37  92  NW3     30.46S
PROSSER AWOS    N/A         37  37  100 SW5     30.48S
RICHLAND AWOS   CLOUDY      39  36  89  CALM    30.46S
#BASIN CITY 5SW N/A         39  37  92  CALM    30.44F
#BENTON CITY    N/A         37  35  92  SW2     30.37S
#CONNELL 5N     N/A         36  35  96  CALM    30.46S
#CONNELL 5NW    N/A         36  35  96  NE2     30.42S
#ELTOPIA 6NW    N/A         37  36  96  N1      29.39S
#KAHLOTUS       N/A         36  35  96  S5      30.46S
#KENNEWICK 3S   N/A         37  36  96  CALM    30.48R
#PATERSON       N/A         39  36  89  CALM    30.46R
#PROSSER        N/A         35  33  92  W2      30.48R
#SAGEMOOR 2W    N/A         39  37  92  CALM    30.31S
#TOUCHET 2S     N/A         37  36  96  CALM    30.45S
#WEST PASCO     N/A         40  37  89  CALM    30.45S
$$

WAZ029-300410-
FOOTHILLS OF THE BLUES...WASHINGTON

CITY            SKY/WX      TMP DP  RH  WIND    PRES   REMARKS
WALLA WALLA AP  CLOUDY      37  34  89  CALM    30.42R
#DAYTON SCHOOL  N/A         36  31  82  CALM    30.39R
#LOWDEN 2SE     N/A         37  36  96  CALM    30.42R
#PLEASANT VIEW 1N/A         34  33  96  CALM    30.51R
#PRESCOTT       N/A         37  36  96  CALM    30.45S
#WHITMAN COLLEGEN/A         36  34  92  CALM    30.52R
#WAITSBURG 5S   N/A         33  33  100 NW1     30.57R
#WAITSBURG 8N   N/A         34  29  82  CALM    30.24S
#WALLA WALLA 5E N/A         35  34  96  CALM    N/A
#WALLA WALLA U  N/A         38  36  92  CALM    30.47R
#WHITMAN MISSIONN/A         38  36  92  CALM    30.48R
$$

WAZ030-300410-
BLUE MOUNTAINS...WASHINGTON

CITY            SKY/WX      TMP DP  RH  WIND    PRES   REMARKS
#DIXIE 5SE      N/A         30  30  100 CALM    30.27R
#SKI BLUEWOOD   N/A         33  29  85  CALM    30.29R
$$

ORZ009-041-WAZ024-300410-
COLUMBIA RIVER GORGE

CITY            SKY/WX      TMP DP  RH  WIND    PRES   REMARKS
HOOD RIVER AP   CLOUDY      41  36  82  E5      30.44R
THE DALLES AP   CLOUDY      41  35  79  E6      30.45R
#ARLINGTON AIRPON/A         37  36  96  CALM    30.02S
#ARLINGTON HS   N/A         40  36  85  CALM    30.39R
#CELILO DOT     N/A         41  33  73  NE2     N/A
#LYLE           N/A         42  37  82  SE7     30.46S
#MOSIER 1S      N/A         38  31  76  CALM    30.44R
#MURDOCK        N/A         43  39  86  E1      30.48R
#RUFUS DOT      N/A         41  34  76  E2      N/A

$$

ORZ510-300410-
NORTH CENTRAL OREGON

CITY            SKY/WX      TMP DP  RH  WIND    PRES   REMARKS
#CHENOWITH 1W   N/A         34  34  100 E9      N/A
#COW CYN RST AREN/A         33  33  100 N7      N/A
#DUFUR 9E       N/A         32  32  100 E7      30.51R
#GRASS VALLEY 1SN/A         33  32  96  E2      30.47R
#KENT DOT       N/A         33  30  89  NE3     N/A
#MAUPIN SCHOOL  N/A         40  35  82  N1      30.41R
#MORO SCHOOL    N/A         34  34  100 E2      30.38R
#SHANIKO 5WSW   N/A         33  30  89  N9      N/A
#SHANIKO 4NW    N/A         32  32  100 N6      30.30R
#TYGH VALLEY 2NEN/A         39  35  85  N5      30.42R
#WAPANITIA AIRPON/A         36  34  92  CALM    30.45R
#WASCO DOT      N/A         37  33  85  E6      N/A
#WASCO AIRPORT  N/A         35  33  92  E6      N/A
#WASCO 5NE      N/A         34  33  96  E2      30.46R
$$

ORZ511-300410-
CENTRAL OREGON

CITY            SKY/WX      TMP DP  RH  WIND    PRES   REMARKS
BEND AIRPORT    CLOUDY      37  36  96  CALM    30.32R FOG
MADRAS AIRPORT  N/A         37  36  96  N7      30.36R
PRINEVILLE AP   FOG         37  37  100 W6      30.32R VSB 3/4
REDMOND AIRPORT CLOUDY      37  35  92  NW6     30.31R
#BEND 1SW       N/A         38  36  92  CALM    N/A
#BEND-AWBREY    N/A         38  37  96  CALM    30.37R
#BEND-KIM LN    N/A         38  36  92  CALM    30.27R
#CROOKED RVR RANN/A         38  36  92  NE3     30.37R
#CULVER         N/A         37  34  89  N1      30.29R
#LAKE BILLY CHINN/A         38  30  73  N2      30.40R
#POWELL BUTTE   N/A         36  34  92  NW2     29.92R
#PRINEVILLE 3N  N/A         39  37  92  W1      30.33R
#WARM SPRINGS   N/A         42  37  82  W6      30.32R

$$


ORZ509-300410-
EAST SLOPES OF OREGON CASCADES

CITY            SKY/WX      TMP DP  RH  WIND    PRES   REMARKS
#BLUE BOX PASS  N/A         30  -18 11  SE1     N/A
#CAMP SHERMAN   N/A         37  34  89  CALM    30.44R
#LA PINE DOT    N/A         37  35  92  N5      N/A
#LA PINE 4NW    N/A         37  34  89  E1      30.40R
#LAVA BUTTE DOT N/A         36  34  92  CALM    N/A
#MT BACHELOR-MIDN/A         33  27  78  CALM    N/A
#SISTERS AIRPOR N/A         37  37  100 CALM    30.17S
#SISTERS ODOT   N/A         38  N/A N/A CALM    N/A
#SISTERS 1NW    N/A         38  36  92  NE6     N/A
#SISTERS 3N     N/A         37  33  85  CALM    30.31R
#SUNRIVER       N/A         37  36  96  NE1     30.25R
#TUMALO 3W      N/A         36  35  96  E1      30.24R
#WANOGA BUTTE D N/A         36  32  85  NE3     N/A

$$

ORZ044-300410-
LOWER COLUMBIA BASIN...OREGON

CITY            SKY/WX      TMP DP  RH  WIND    PRES   REMARKS
HERMISTON       CLOUDY      39  34  82  N6      30.44R
#BOARDMAN SCHOOLN/A         40  35  82  CALM    30.47R
#BOARDMAN 8SW   N/A         38  37  96  CALM    30.47R
#ECHO 8SW       N/A         38  37  96  NE1     30.41R
#IONE SCHOOL    N/A         36  25  64  NE1     30.40R
#IRRIGON 4NW    N/A         40  39  96  E3      N/A
#UMATILLA SCHOOLN/A         37  37  100 CALM    30.49F
#UMATILLA       N/A         40  34  79  CALM    30.43R
$$

ORZ507-300410-
NORTHERN FOOTHILLS OF THE BLUES

CITY            SKY/WX      TMP DP  RH  WIND    PRES   REMARKS
PENDLETON AIRPT CLOUDY      35  33  92  CALM    30.40R
#ADAMS 3WNW     N/A         34  33  96  NE5     30.47R
#ATHENA         N/A         33  32  96  CALM    30.49R
#CAYUSE         N/A         35  33  92  CALM    30.45S
#HELIX SCHOOL   N/A         33  32  96  CALM    30.45S
#HELIX 3N       N/A         33  32  96  N3      30.33R
#HELIX 6SW      N/A         34  33  96  N2      30.37S
#HOLDMAN 5SE    N/A         36  35  96  CALM    30.39R
#HOLDMAN 6E     N/A         33  32  96  CALM    30.27R
#M-F FERNDALE   N/A         36  34  92  CALM    30.42R
#M-F GROVE ELEM N/A         36  31  82  CALM    30.40R
#M-FREEWATER 5SEN/A         34  32  92  CALM    30.39R
#PENDLETON DNTN N/A         38  32  79  CALM    29.20S
#PDT AQUATIC CTRN/A         38  34  85  CALM    30.40S
#PENDLETON 5NE  N/A         36  34  92  CALM    30.35S
#PDT SUNRIDGE   N/A         36  33  89  CALM    30.42S
#PENDLETON 7NW  N/A         37  33  85  CALM    27.12R
#TUTUILLA       N/A         36  33  89  CALM    30.44S
#UMAPINE 2E     N/A         37  35  92  CALM    30.41R
#WESTON SCHOOL  N/A         32  30  92  CALM    30.36S

$$

ORZ508-300410-
SOUTHERN FOOTHILLS OF THE BLUES

CITY            SKY/WX      TMP DP  RH  WIND    PRES   REMARKS
LEXINGTON       CLOUDY      36  36  100 N8      30.41R FOG
#AJAX           N/A         35  30  82  N6      30.27S
#CONDON SCHOOL  N/A         32  31  96  CALM    30.28R
#CONDON 5W      N/A         30  29  96  CALM    30.29R
#HEPPNER EOC    N/A         35  33  92  N3      30.39R
#HEPPNER 4NE    N/A         31  30  96  NE2     30.45R
#LEXINGTON 2SE  N/A         36  33  89  NE2     30.35R
#MIKKALO        N/A         35  35  100 NE2     30.39R
#OLEX 4N        N/A         36  35  96  E3      30.41R
#RUGGS 5NE      N/A         32  26  78  N3      30.52R
#RUGGS 2SW      N/A         32  31  96  N3      30.47R

$$

ORZ502-503-300410-
BLUE MOUNTAINS

CITY            SKY/WX      TMP DP  RH  WIND    PRES   REMARKS
MEACHAM         PTCLDY      32  28  85  CALM    30.30S
#BATTLE MTN DOT N/A         32  32  100 CALM    N/A
#HARDMAN 10S    N/A         39  35  85  CALM    30.46R
#HEPPNER 15SE   N/A         34  32  92  CALM    30.20R
#LADD CYN SMT   N/A         35  27  72  SE3     N/A
#LADD CREEK ODOTN/A         32  23  69  SW5     N/A
#LONG CREEK HS  N/A         35  34  96  CALM    30.24R
#N POWDER DOT   N/A         33  29  85  W3      N/A
#PIKES PEAK     N/A         28  26  92  NE2     27.99S
#TOLLGATE       N/A         31  28  88  CALM    30.18S
#TROY SCHOOL    N/A         37  34  89  CALM    30.27R
#UKIAH          N/A         34  31  89  CALM    30.43R
#WESTON 4E      N/A         28  27  96  CALM    30.37R
$$

ORZ505-300410-
JOHN DAY BASIN

CITY            SKY/WX      TMP DP  RH  WIND    PRES   REMARKS
JOHN DAY        PTCLDY      38  30  73  E8      30.30R
#JOHN DAY KJDY  N/A         39  34  82  CALM    30.31F
#DAYVILLE SCHOOLN/A         43  34  70  CALM    30.24R
#MITCHELL       N/A         38  38  100 CALM    30.43R
#MONUMENT HS    N/A         40  33  76  CALM    30.29R
#MT. VERNON 5SE N/A         37  32  82  CALM    30.23R
#WINLOCK        N/A         34  32  92  CALM    30.36R
$$

ORZ506-300410-
OCHOCO AND JOHN DAY HIGHLANDS

CITY            SKY/WX      TMP DP  RH  WIND    PRES   REMARKS
#BUCK CREEK DOT N/A         38  38  100 E9      N/A
#HORSE RIDGE DO N/A         36  35  96  N3      N/A
#KEYES SMT DOT  N/A         33  33  100 NW3     N/A
#PAULINA SCHOOL N/A         50  35  56  CALM    30.21R
#PINE MTN OBS   N/A         37  32  82  NE5     N/A
#PRAIRIE CITY   N/A         35  27  72  NE2     30.43R
#SENECA         N/A         32  N/A N/A S1      N/A
#SENECA 9NW     N/A         29  27  92  CALM    30.38R
$$

ORZ049-300410-
GRANDE RONDE VALLEY

CITY            SKY/WX      TMP DP  RH  WIND    PRES   REMARKS
LA GRANDE       PTCLDY      34  23  64  CALM    30.33R
#COVE           N/A         35  29  78  E1      30.03S
#COVE SCHOOL    N/A         35  30  82  CALM    30.29R
#COVE 6NW       N/A         35  29  78  CALM    30.48R
#ELGIN 3N       N/A         33  23  66  CALM    30.13R
#ELGIN 1E       N/A         39  31  73  CALM    N/A
#IMBLER SCHOOL  N/A         34  28  78  CALM    30.28R
#ISLAND CITY 4N N/A         45  43  93  CALM    30.26R
#LADD CYN DOT   N/A         40  30  67  S14     N/A    WCI 32
#UNION 1S       N/A         38  31  76  SE3     30.34R
$$

ORZ050-300410-
WALLOWA COUNTY

CITY            SKY/WX      TMP DP  RH  WIND    PRES   REMARKS
JOSEPH AIRPORT  PTCLDY      28  23  81  S3      30.33S
#ENTERPRISE AP  N/A         32  26  78  CALM    30.23S
#ENTERPRISE HS  N/A         30  27  88  CALM    30.30R
#IMNAHA SCHOOL  N/A         36  31  82  SE1     30.34R
#IMNAHA 10S     N/A         38  30  73  SW3     30.31R
#JOSEPH 3N      N/A         27  27  100 CALM    30.32S
#JOSEPH 3W      N/A         30  14  51  SW2     30.11S
#LOSTINE        N/A         29  26  88  CALM    30.26R
#MT HOWARD 8000 N/A         32  -31  5  CALM    30.27S
#PROMISE 1S     N/A         35  30  82  CALM    30.54R
#SHEEP RDG 7000 N/A         31   5  32  CALM    30.35S
#WALLOWA SCHOOL N/A         30  27  88  CALM    31.45R



$$



USA.gov is the U.S. government's official web portal to all federal, state and local government web resources and services.